Tiempo cada hora Cayacoa de Boca Chica

Hoy, 25 Enero, Lunes

Tiempo Temperatura Precipitaciones Viento Presión Humedad
00:00 +22°C° 0 mm 3 mps 759 mmHg 89%
01:00 +22°C° 0 mm 3 mps 758 mmHg 91%
02:00 +21°C° 0 mm 3 mps 758 mmHg 91%
03:00 +21°C° 0 mm 3 mps 758 mmHg 91%
04:00 +21°C° 0 mm 3 mps 758 mmHg 91%
05:00 +21°C° 0 mm 3 mps 759 mmHg 91%
06:00 +21°C° 0 mm 3 mps 759 mmHg 90%
07:00 +22°C° 0 mm 3 mps 760 mmHg 89%
08:00 +23°C° 0 mm 4 mps 760 mmHg 81%
09:00 +26°C° 0 mm 4 mps 760 mmHg 72%
10:00 +28°C° 0 mm 4 mps 760 mmHg 64%
11:00 +29°C° 0 mm 4 mps 760 mmHg 60%
12:00 +30°C° 0 mm 4 mps 759 mmHg 56%
13:00 +30°C° 0 mm 4 mps 758 mmHg 53%
14:00 +30°C° 0 mm 4 mps 758 mmHg 55%
15:00 +29°C° 0 mm 4 mps 758 mmHg 58%
16:00 +29°C° 0 mm 4 mps 758 mmHg 60%
17:00 +27°C° 0 mm 4 mps 758 mmHg 66%
18:00 +25°C° 0 mm 4 mps 758 mmHg 71%
19:00 +22°C° 0 mm 4 mps 759 mmHg 77%
20:00 +22°C° 0 mm 4 mps 759 mmHg 80%
21:00 +21°C° 0 mm 4 mps 759 mmHg 84%
22:00 +21°C° 0 mm 4 mps 760 mmHg 87%
23:00 +20°C° 0 mm 4 mps 759 mmHg 87%

Mañana, 26 Enero, Martes

Tiempo Temperatura Precipitaciones Viento Presión Humedad
00:00 +20°C° 0 mm 4 mps 759 mmHg 87%
01:00 +20°C° 0 mm 4 mps 759 mmHg 87%
02:00 +20°C° 0 mm 4 mps 758 mmHg 88%
03:00 +20°C° 0 mm 3 mps 758 mmHg 88%
04:00 +20°C° 0 mm 3 mps 758 mmHg 88%
05:00 +21°C° 0 mm 3 mps 759 mmHg 87%
06:00 +21°C° 0 mm 3 mps 759 mmHg 87%
07:00 +22°C° 0 mm 3 mps 760 mmHg 86%
08:00 +24°C° 0.1 mm 3 mps 760 mmHg 83%
09:00 +25°C° 0.1 mm 3 mps 760 mmHg 81%
10:00 +26°C° 0.1 mm 3 mps 761 mmHg 79%
11:00 +27°C° 0.4 mm 3 mps 760 mmHg 78%
12:00 +27°C° 0.4 mm 3 mps 760 mmHg 77%
13:00 +28°C° 0.4 mm 3 mps 759 mmHg 77%
14:00 +27°C° 0.5 mm 3 mps 759 mmHg 79%
15:00 +27°C° 0.5 mm 3 mps 759 mmHg 82%
16:00 +26°C° 0.5 mm 3 mps 758 mmHg 84%
17:00 +26°C° 0.1 mm 3 mps 759 mmHg 86%
18:00 +25°C° 0.1 mm 3 mps 759 mmHg 89%
19:00 +24°C° 0.1 mm 3 mps 759 mmHg 91%
20:00 +24°C° 0.1 mm 3 mps 760 mmHg 91%
21:00 +24°C° 0.1 mm 3 mps 760 mmHg 91%
22:00 +22°C° 0.1 mm 3 mps 760 mmHg 92%
23:00 +22°C° 0 mm 4 mps 760 mmHg 92%

Pasado mañana, 27 Enero, Miércoles

Tiempo Temperatura Precipitaciones Viento Presión Humedad
00:00 +22°C° 0 mm 4 mps 759 mmHg 92%
01:00 +22°C° 0 mm 4 mps 759 mmHg 92%
02:00 +21°C° 0 mm 4 mps 759 mmHg 92%
03:00 +21°C° 0 mm 4 mps 759 mmHg 92%
04:00 +21°C° 0 mm 4 mps 759 mmHg 93%
05:00 +21°C° 0 mm 3 mps 759 mmHg 92%
06:00 +21°C° 0 mm 3 mps 760 mmHg 92%
07:00 +21°C° 0 mm 3 mps 760 mmHg 92%
08:00 +24°C° 0 mm 3 mps 760 mmHg 84%
09:00 +26°C° 0 mm 4 mps 760 mmHg 76%
10:00 +28°C° 0 mm 4 mps 761 mmHg 68%
11:00 +28°C° 0 mm 4 mps 760 mmHg 65%
12:00 +29°C° 0 mm 3 mps 760 mmHg 61%
13:00 +30°C° 0 mm 3 mps 759 mmHg 57%
14:00 +29°C° 0 mm 3 mps 759 mmHg 59%
15:00 +29°C° 0 mm 3 mps 758 mmHg 61%
16:00 +29°C° 0 mm 3 mps 758 mmHg 63%
17:00 +27°C° 0 mm 3 mps 758 mmHg 70%
18:00 +26°C° 0 mm 3 mps 759 mmHg 77%
19:00 +24°C° 0 mm 3 mps 759 mmHg 84%
20:00 +22°C° 0 mm 3 mps 759 mmHg 87%
21:00 +22°C° 0 mm 3 mps 759 mmHg 89%
22:00 +21°C° 0 mm 3 mps 759 mmHg 91%
23:00 +21°C° 0 mm 3 mps 759 mmHg 91%

28 Enero, Jueves

Tiempo Temperatura Precipitaciones Viento Presión Humedad
00:00 +21°C° 0 mm 3 mps 759 mmHg 91%
01:00 +21°C° 0 mm 3 mps 759 mmHg 91%
02:00 +20°C° 0 mm 3 mps 759 mmHg 92%
03:00 +20°C° 0 mm 2 mps 758 mmHg 92%
04:00 +20°C° 0 mm 2 mps 758 mmHg 92%
05:00 +20°C° 0 mm 2 mps 758 mmHg 91%
06:00 +21°C° 0 mm 3 mps 759 mmHg 91%
07:00 +21°C° 0 mm 3 mps 759 mmHg 90%
08:00 +24°C° 0 mm 2 mps 759 mmHg 82%
09:00 +26°C° 0 mm 2 mps 759 mmHg 74%
10:00 +28°C° 0 mm 2 mps 760 mmHg 66%
11:00 +29°C° 0 mm 2 mps 759 mmHg 62%
12:00 +30°C° 0 mm 2 mps 758 mmHg 59%
13:00 +31°C° 0 mm 2 mps 758 mmHg 56%
14:00 +30°C° 0 mm 2 mps 757 mmHg 60%
15:00 +29°C° 0 mm 2 mps 757 mmHg 63%
16:00 +29°C° 0 mm 3 mps 756 mmHg 67%
17:00 +27°C° 0 mm 2 mps 757 mmHg 72%
18:00 +26°C° 0 mm 1 mps 757 mmHg 77%
19:00 +25°C° 0 mm 1 mps 758 mmHg 82%
20:00 +24°C° 0 mm 1 mps 758 mmHg 84%
21:00 +24°C° 0 mm 2 mps 758 mmHg 86%
22:00 +24°C° 0 mm 2 mps 758 mmHg 88%
23:00 +24°C° 0 mm 3 mps 758 mmHg 88%

29 Enero, Viernes

Tiempo Temperatura Precipitaciones Viento Presión Humedad
00:00 +22°C° 0 mm 3 mps 758 mmHg 89%
01:00 +22°C° 0 mm 4 mps 758 mmHg 89%
02:00 +22°C° 0 mm 4 mps 757 mmHg 89%
03:00 +21°C° 0 mm 4 mps 757 mmHg 89%
04:00 +21°C° 0 mm 4 mps 757 mmHg 88%
05:00 +21°C° 0 mm 4 mps 757 mmHg 87%
06:00 +21°C° 0 mm 4 mps 758 mmHg 87%
07:00 +21°C° 0 mm 4 mps 758 mmHg 86%
08:00 +23°C° 0 mm 5 mps 758 mmHg 77%
09:00 +26°C° 0 mm 5 mps 759 mmHg 69%
10:00 +28°C° 0 mm 5 mps 759 mmHg 61%
11:00 +29°C° 0 mm 5 mps 758 mmHg 58%
12:00 +30°C° 0 mm 4 mps 758 mmHg 55%
13:00 +32°C° 0 mm 4 mps 757 mmHg 52%
14:00 +30°C° 0 mm 4 mps 757 mmHg 55%
15:00 +30°C° 0 mm 4 mps 757 mmHg 58%
16:00 +29°C° 0 mm 4 mps 757 mmHg 61%
17:00 +28°C° 0 mm 4 mps 757 mmHg 70%
18:00 +26°C° 0 mm 4 mps 758 mmHg 79%
19:00 +23°C° 0 mm 4 mps 758 mmHg 88%
20:00 +23°C° 0.1 mm 4 mps 758 mmHg 89%
21:00 +23°C° 0.1 mm 4 mps 759 mmHg 90%
22:00 +22°C° 0.1 mm 4 mps 759 mmHg 92%
23:00 +22°C° 0.3 mm 4 mps 759 mmHg 92%

30 Enero, Sábado

Tiempo Temperatura Precipitaciones Viento Presión Humedad
00:00 +22°C° 0.3 mm 5 mps 759 mmHg 92%
01:00 +22°C° 0.3 mm 5 mps 759 mmHg 93%
02:00 +22°C° 0.3 mm 5 mps 759 mmHg 93%
03:00 +22°C° 0.3 mm 5 mps 759 mmHg 93%
04:00 +22°C° 0.3 mm 5 mps 759 mmHg 93%
05:00 +22°C° 0.3 mm 5 mps 759 mmHg 93%
06:00 +22°C° 0.3 mm 5 mps 760 mmHg 93%
07:00 +22°C° 0.3 mm 5 mps 760 mmHg 92%
08:00 +22°C° 0.3 mm 5 mps 761 mmHg 90%
09:00 +23°C° 0.3 mm 6 mps 761 mmHg 87%
10:00 +23°C° 0.3 mm 6 mps 761 mmHg 84%
11:00 +24°C° 0.3 mm 6 mps 761 mmHg 82%
12:00 +24°C° 0.3 mm 6 mps 760 mmHg 80%
13:00 +26°C° 0.3 mm 6 mps 760 mmHg 78%
14:00 +24°C° 0.2 mm 6 mps 760 mmHg 79%
15:00 +24°C° 0.2 mm 6 mps 759 mmHg 80%
16:00 +24°C° 0.2 mm 6 mps 759 mmHg 81%
17:00 +23°C° 0 mm 6 mps 759 mmHg 83%
18:00 +23°C° 0 mm 5 mps 760 mmHg 84%
19:00 +22°C° 0 mm 5 mps 760 mmHg 86%
20:00 +22°C° 0 mm 5 mps 760 mmHg 86%
21:00 +22°C° 0 mm 5 mps 761 mmHg 86%
22:00 +22°C° 0 mm 5 mps 761 mmHg 86%
23:00 +22°C° 0 mm 5 mps 761 mmHg 87%
Mostrar más